This is the latest recevied weather packets stored in our database for station/object W4ZHA. If no packets are shown the sender has not sent any weather packets the latest 1 day(s).
| Time | Temp. | Humidity | Pressure | Rain* | Wind** | Luminosity | Snow |
|---|---|---|---|---|---|---|---|
| 1777998709 | 24.44° C | 55% | 1015.1 hPa | 0 mm | 0 m/s | 451 W/m² | - |
| 1777998406 | 22.78° C | 53% | 1015.5 hPa | 0 mm | 0 m/s | 417 W/m² | - |
| 1777998104 | 23.89° C | 53% | 1015.1 hPa | 0 mm | 0 m/s | 302 W/m² | - |
| 1777997800 | 22.78° C | 54% | 1014.8 hPa | 0 mm | 0 m/s | 374 W/m² | - |
| 1777997498 | 22.78° C | 55% | 1015.1 hPa | 0 mm | 0 m/s | 331 W/m² | - |
| 1777997196 | 22.22° C | 55% | 1015.1 hPa | 0 mm | 0 m/s | 358 W/m² | - |
| 1777996893 | 21.67° C | 56% | 1015.1 hPa | 0 mm | 0 m/s | 401 W/m² | - |
| 1777996588 | 21.67° C | 56% | 1015.5 hPa | 0 mm | 0 m/s | 371 W/m² | - |
| 1777996285 | 22.78° C | 57% | 1015.5 hPa | 0 mm | 0 m/s | 366 W/m² | - |
| 1777995981 | 22.78° C | 55% | 1015.5 hPa | 0 mm | 0 m/s | 329 W/m² | - |
| 1777995677 | 21.67° C | 56% | 1015.5 hPa | 0 mm | 0 m/s | 348 W/m² | - |
| 1777995375 | 21.67° C | 57% | 1015.5 hPa | 0 mm | 0 m/s | 302 W/m² | - |
| 1777995072 | 21.67° C | 58% | 1015.5 hPa | 0 mm | 0 m/s | 305 W/m² | - |
| 1777994773 | 21.67° C | 57% | 1015.5 hPa | 0 mm | 0 m/s | 171 W/m² | - |
| 1777994464 | 21.11° C | 57% | 1015.5 hPa | 0 mm | 0 m/s | 262 W/m² | - |
| 1777994160 | 21.11° C | 58% | 1015.5 hPa | 0 mm | 0 m/s | 301 W/m² | - |
| 1777993858 | 21.67° C | 58% | 1015.5 hPa | 0 mm | 0 m/s | 340 W/m² | - |
| 1777993553 | 21.11° C | 59% | 1015.5 hPa | 0 mm | 0 m/s | 267 W/m² | - |
| 1777993250 | 20.56° C | 60% | 1015.5 hPa | 0 mm | 0 m/s | 164 W/m² | - |
| 1777992946 | 20.56° C | 61% | 1015.1 hPa | 0 mm | 0 m/s | 174 W/m² | - |
| 1777992644 | 20.56° C | 61% | 1015.5 hPa | 0 mm | 0 m/s | 222 W/m² | - |
| 1777992342 | 20.56° C | 61% | 1015.5 hPa | 0 mm | 0 m/s | 103 W/m² | - |
| 1777992039 | 20° C | 61% | 1015.8 hPa | 0 mm | 0 m/s | 99 W/m² | - |
| 1777991737 | 20° C | 61% | 1015.8 hPa | 0 mm | 0 m/s | 269 W/m² | - |
| 1777991434 | 18.89° C | 60% | 1015.5 hPa | 0 mm | 0 m/s | 160 W/m² | - |
* Rain latest hour (hover to see other rain measurements)
** Current wind speed in m/s (hover to see current wind gust speed)